Regional Weather Roundup
Issued by NWS

Home | Current Version | Previous Version | Graphics & Text | Print | Product List | Glossary On
Versions: 1 2 3 4 5 6 7 8 9 10 11 12 13 14 15 16 17 18 19 20 21 22 23 24 25 26 27 28 29 30 31 32 33 34 35 36 37 38 39 40 41 42 43 44 45 46 47 48 49 50
000
ASUS43 KMKX 241511
RWRWI

WISCONSIN REGIONAL WEATHER ROUNDUP
NATIONAL WEATHER SERVICE MILWAUKEE/SULLIVAN WI
900 AM CST MON NOV 24 2014

NOTE: "FAIR" INDICATES FEW OR NO CLOUDS BELOW 12,000 FEET WITH NO
SIGNIFICANT WEATHER AND/OR OBSTRUCTIONS TO VISIBILITY.

WIZ001-002-006>008-014>016-023>028-241600-
NORTHWEST WISCONSIN

CITY           SKY/WX    TMP DP  RH WIND       PRES   REMARKS
SUPERIOR ARPT  LGT SNOW  32  30  92 NW6       29.29S WCI  26
ASHLAND        LGT SNOW  33  32  96 N5        29.22R VSB 1   WCI  29
HAYWARD        LGT SNOW  32  29  88 NW8       29.22R FOG     WCI  25
SIREN          LGT SNOW  27  25  92 NW13G23   29.32R WCI  16
CUMBERLAND     LGT SNOW  28  27  93 NW17G28   29.26R WCI  16
RICE LAKE      LGT SNOW  29  27  90 W15G21    29.27R WCI  18
CHETEK         LGT SNOW  29  28  94 W12G22    29.25R VSB 1   WCI  19
LADYSMITH      LGT SNOW  34  33  96 NW15G22   29.19R WCI  24
EAU CLAIRE     LGT SNOW  31  27  85 NW18G28   29.25R VSB 1   WCI  19
MENOMONIE      LGT SNOW  30  27  90 W17G28    29.28R WCI  18
NEW RICHMOND   CLOUDY    26  25  94 NW20      29.34R WCI  13
OSCEOLA        LGT SNOW  27  26  99 NW15      29.39R WCI  15
$$

WIZ003>005-009-010-017-018-241600-
NORTH CENTRAL WISCONSIN

CITY           SKY/WX    TMP DP  RH WIND       PRES   REMARKS
MANITOWISH WTR CLOUDY    32  32 100 N8        29.12R FOG     WCI  25
ARBOR VITAE    MIX PCPN  37  36  96 NW12      29.10R WCI  29
WOODRUFF       MIX PCPN  37  36  96 NW12      29.10R WCI  29
RHINELANDER    CLOUDY    35  33  92 NW10      29.08R WCI  27
EAGLE RIVER    CLOUDY    33  33 100 N12G20    29.08R FOG     WCI  25
LAND O LAKES   CLOUDY    33  33 100 N12G21    29.10R FOG     WCI  25
PHILLIPS       LGT SNOW  32  32 100 NW7       29.14R WCI  26
TOMAHAWK       LGT RAIN  33  32  97 NW9G16    29.11R WCI  25
MEDFORD        LGT SNOW  32  32  99 NW12      29.13R WCI  23
MERRILL        LGT RAIN  35  35  99 NW9       29.10R WCI  28
$$

WIZ029-030-035-036-043>047-241600-
CENTRAL WISCONSIN

CITY           SKY/WX    TMP DP  RH WIND       PRES   REMARKS
WAUSAU         LGT RAIN  36  34  92 NW12      29.08R WCI  28
MOSINEE        DRIZZLE   36  36 100 NW10      29.10R WCI  28
MARSHFIELD     LGT SNOW  34  32  92 NW18      29.13R FOG     WCI  23
STEVENS POINT  RAIN      35  34  97 NW7       29.10R WCI  29
WAUPACA        DRIZZLE   42  41  97 NW10      29.08R
WAUTOMA        LGT RAIN  39  38  97 NW13      29.10R VSB 1   WCI  31
WISC RAPIDS    LGT RAIN  36  33  89 NW12      29.13R WCI  28
CAMP DOUGLAS   LGTSLEET  36  36 100 W14G22    29.16R WCI  27
$$

WIZ011>013-019>022-031-037>040-048>050-241600-
NORTHEAST WISCONSIN

CITY           SKY/WX    TMP DP  RH WIND       PRES   REMARKS
ANTIGO         DRIZZLE   35  35 100 NW14      29.06R WCI  26
SHAWANO        CLOUDY    42  41  95 W5        29.05R
OCONTO         CLOUDY    41  41 100 W5        29.02R
STURGEON BAY   CLOUDY    41  39  93 W6        29.02S
GREEN BAY      CLOUDY    42  41  96 W6        29.04R
MANITOWOC      CLOUDY    43  43 100 W12       29.04R FOG
APPLETON       CLOUDY    43  43 100 W7        29.05R
CLINTONVILLE   CLOUDY    41  41 100 NW8       29.05R
OSHKOSH        CLOUDY    41  39  93 W8        29.06R FOG
$$

WIZ032>034-041-042-053>061-241600-
SOUTHWEST WISCONSIN

CITY           SKY/WX    TMP DP  RH WIND       PRES   REMARKS
LA CROSSE      SNOW      32  30  92 NW15      29.26R VSB 1/2 WCI  22
SPARTA         LGT SNOW  33  33  98 W10       29.22R WCI  25
VIROQUA        CLOUDY    30  30 100 NW20G29   29.21R VSB<1/4 WCI  18
BOSCOBEL       SNOW      33  30  88 W9G21     29.25R VSB 1/2 WCI  25
PRAIRIE DU CHI LGT SNOW  30  27  88 W18G24    29.29R VSB 1   WCI  17
PLATTEVILLE    CLOUDY    31  30  96 W24       29.25R WCI  18
$$

WIZ056-057-062-063-064-067-068-241600-
SOUTH CENTRAL WISCONSIN

CITY           SKY/WX    TMP DP  RH WIND       PRES   REMARKS
REEDSBURG      DRIZZLE   35  34  96 W9G18     29.15R WCI  27
BARABOO/DELLS  DRIZZLE   35  34  96 W10       29.15R WCI  27
LONE ROCK      LGT SNOW  37  31  78 W14       29.20R VSB 1   WCI  28
MINERAL POINT  LGT SNOW  34  32  93 W18G26    29.19R VSB 3/4 WCI  23
MADISON        DRIZZLE   37  35  92 W13G22    29.14R WCI  29
MIDDLETON      CLOUDY    38  38  98 W17       29.15R WCI  29
WATERTOWN      CLOUDY    38  38 100 W8        29.10R FOG     WCI  32
MONROE         RAIN      34  34 100 W25       29.17R WCI  21
JANESVILLE     CLOUDY    39  39 100 W12       29.14R FOG     WCI  32
$$

WIZ051-052-058>065-066-070>072-241600-
SOUTHEAST WISCONSIN

CITY           SKY/WX    TMP DP  RH WIND       PRES   REMARKS
MILWAUKEE      LGT RAIN  44  41  89 W13       29.07R
WAUKESHA       CLOUDY    39  37  93 W12G21    29.09R WCI  32
MILWAUKEE/TIMM CLOUDY    43  39  87 W14       29.08R
RACINE         LGT RAIN  46  44  93 W8        29.09R
BURLINGTON     CLOUDY    40  39  99 W12G17    29.11R WCI  32
KENOSHA        LGT RAIN  46  45  96 W10       29.08R VSB 1
FOND DU LAC    CLOUDY    41  39  93 W8        29.07R FOG
SHEBOYGAN      CLOUDY    44  42  93 W10       29.04S
WEST BEND      DRIZZLE   39  37  93 W10G16    29.06S WCI  32
JUNEAU         DRIZZLE   38  37  98 W10       29.10R WCI  30
$$

LSZ147-162-241600-
LAKE SUPERIOR

STATION/POSITION TIME  TEMP    WIND        PRES    WAVE
                       AIR SEA DIR/SP/G            HT/PER
                 (UTC) (F)     (DEG/KT/KT) (MB)    (FT/S)
DEVILS ISLAND    1500   32     350/ 24/ 25  990.4R
PORT WING        1400   35     330/ 15/ 18  990.9R
SAXON HARBOR     1400   35     340/ 16/ 19  988.8R
$$

LMZ867-665-643>646-241600-
LAKE MICHIGAN

STATION/POSITION TIME  TEMP    WIND        PRES    WAVE
                       AIR SEA DIR/SP/G            HT/PER
                 (UTC) (F)     (DEG/KT/KT) (MB)    (FT/S)
CHAMBERS ISLAND  1400   41     230/  3/  5  983.1R
N MID LAKE BUOY  1450   41 42  290/ 12/ 14  981.8R   2/ 5
NORTHPORT PIER   1400   41     290/  6/ 12  982.4R
SISTER BAY       1443          300/  6/  7   N/A
KEWAUNEE LAKESHO 1400   41     290/  4/  7  982.2R
SHEBOYGAN LAKESH 1500   45 38  260/  7/  9  984.1R
PORT WASHINGTON  1440   45     280/  5/ 10  985.1R
MILWAUKEE LAKESH 1400   46     290/  8/ 11   N/A
S MID LAKE BUOY  1450   44 42  230/  8/ 10  984.3S   1/ 3
KENOSHA   LAKESH 1500   47     270/ 10/ 15  985.4R
$$

TC  - TEMPERATURE IN CELSIUS
VSB - VISIBILITY IN STATUTE MILES
WCI - WIND CHILL INDEX
HX  - HEAT INDEX



USA.gov is the U.S. government's official web portal to all federal, state and local government web resources and services.